Погода в Большой Туре

Россия / Забайкальский край     51°37′53″N   114°05′13″E
темп.,
°C
ветер,
м/с
пор.,
м/с
влажн.,
%
обл.,
%
осадки,
мм/ч
давл.,
гПа
погр.,
м
29 ноября, пн
пн2900:00−19з119777 0.0 10349
03:00−17зюз0094100 0.0 103313
06:00−16ююз1191100 0.0 103120
09:00−18зсз1198100 0.0 10319
12:00−12з137251 0.0 1029216
15:00−9зсз496581 0.0 1026944
18:00−12зсз3108161 0.0 1027280
21:00−12з311845 0.0 1027368
30 ноября, вт
вт3000:00−16з139510 0.0 102856
03:00−12зсз3118977 0.0 1025338
06:00−10зсз4128263 0.0 1024623
09:00−12зсз4118335 0.0 1025401
12:00−9зсз5106839 0.0 1025952
15:00−8сз47595 0.0 10231089
18:00−14зсз11895 0.0 102716
21:00−18сз11965 0.0 10299
1 декабря, ср
ср100:00−19ссз11985 0.0 10309
03:00−19ссз009916 0.0 10299
06:00−19зюз019999 0.0 102610
09:00−15юз119797 0.0 102222
12:00−5з4146693 0.0 10151124
15:00−2зсз71652100 0.0 10111271
18:00−4з71755100 0.0 10101264
21:00−3зсз81854100 0.0 10071483
2 декабря, чт
чт200:00−5сз8187153 0.1 10071700
03:00−8сз715595 0.1 10111395
06:00−11сз614655 0.0 10141088
09:00−12сз614675 0.0 1016952
12:00−10сз512575 0.0 10181051
15:00−9сз59515 0.0 10181147
18:00−12зсз310705 0.0 1020276
21:00−14зсз3107935 0.0 1021306
3 декабря, пт
пт300:00−14зсз3981100 0.0 1021269
03:00−13зсз2885100 0.0 1020255
06:00−12зсз310885 0.0 1018329
09:00−12зсз398915 0.0 1019262
12:00−6сз311726 0.0 1019643
15:00−3сз4106934 0.0 1017927
18:00−10зсз1192100 0.0 101910
21:00−9з1195100 0.0 102019